,,Stat6,,Stat2,,Stat8,,Stat9,,Stat10,,Wind1,,Wind1,
time,status,PA1M_AVG,status,PR1M_SUM,status,RH1M_AVG,status,SR1M_AVG,status,TA1M_AVG,status,W1dAve1m,status,W1sAve1m,
2009-07-01, 00:00:01,VALID,918.954,VALID,0,VALID,100,VALID,-0.0679233,VALID,20.3368,VALID,79,VALID,0,
2009-07-01, 00:01:01,VALID,918.945,VALID,0,VALID,100,VALID,-0.0169808,VALID,20.3593,VALID,79,VALID,0,
2009-07-01, 00:02:01,VALID,918.92,VALID,0,VALID,100,VALID,-0.101885,VALID,20.3431,VALID,79,VALID,0,
2009-07-01, 00:03:01,VALID,918.906,VALID,0,VALID,100,VALID,-0.0509425,VALID,20.3269,VALID,92,VALID,0,
2009-07-01, 00:04:01,VALID,918.873,VALID,0,VALID,100,VALID,-0.0339617,VALID,20.3328,VALID,131,VALID,0,
2009-07-01, 00:05:01,VALID,918.857,VALID,0,VALID,100,VALID,-0.0169808,VALID,20.3361,VALID,144,VALID,0,
2009-07-01, 00:06:01,VALID,918.839,VALID,0,VALID,100,VALID,-0.0169808,VALID,20.3298,VALID,147,VALID,0,
2009-07-01, 00:07:00,VALID,918.819,VALID,0,VALID,100,VALID,0,VALID,20.3166,VALID,147,VALID,0,
2009-07-01, 00:08:00,VALID,918.828,VALID,0,VALID,100,VALID,-0.0509425,VALID,20.3139,VALID,147,VALID,0,
2009-07-01, 00:09:00,VALID,918.81,VALID,0,VALID,100,VALID,0,VALID,20.3204,VALID,147,VALID,0,
2009-07-01, 00:10:00,VALID,918.832,VALID,0,VALID,100,VALID,-0.0169808,VALID,20.3263,VALID,151,VALID,0,
2009-07-01, 00:11:00,VALID,918.831,VALID,0,VALID,100,VALID,-0.0169808,VALID,20.3331,VALID,152,VALID,0,
2009-07-01, 00:12:00,VALID,918.831,VALID,0,VALID,100,VALID,-0.0509425,VALID,20.3304,VALID,152,VALID,0,
2009-07-01, 00:13:00,VALID,918.837,VALID,0,VALID,100,VALID,-0.0339617,VALID,20.3398,VALID,152,VALID,0,
2009-07-01, 00:14:00,VALID,918.824,VALID,0,VALID,100,VALID,-0.0169808,VALID,20.3239,VALID,152,VALID,0,
2009-07-01, 00:15:00,VALID,918.796,VALID,0,VALID,100,VALID,-0.0339617,VALID,20.3141,VALID,146,VALID,0,
2009-07-01, 00:16:00,VALID,918.788,VALID,0,VALID,100,VALID,-0.0169808,VALID,20.3041,VALID,140,VALID,0,
2009-07-01, 00:17:00,VALID,918.788,VALID,0,VALID,100,VALID,-0.0339617,VALID,20.3141,VALID,127,VALID,0,
2009-07-01, 00:18:00,VALID,918.764,VALID,0,VALID,100,VALID,-0.0509425,VALID,20.3333,VALID,126,VALID,0,
2009-07-01, 00:19:00,VALID,918.746,VALID,0,VALID,100,VALID,-0.0339617,VALID,20.3491,VALID,124,VALID,0,
2009-07-01, 00:20:00,VALID,918.735,VALID,0,VALID,100,VALID,-0.0849042,VALID,20.3623,VALID,107,VALID,0,
2009-07-01, 00:21:00,VALID,918.719,VALID,0,VALID,100,VALID,-0.0679233,VALID,20.3431,VALID,110,VALID,0,
2009-07-01, 00:22:00,VALID,918.696,VALID,0,VALID,100,VALID,-0.0679233,VALID,20.3363,VALID,104,VALID,0,
2009-07-01, 00:23:00,VALID,918.684,VALID,0,VALID,100,VALID,-0.0509425,VALID,20.3209,VALID,91,VALID,0,
2009-07-01, 00:24:00,VALID,918.675,VALID,0,VALID,100,VALID,-0.0339617,VALID,20.2492,VALID,80,VALID,0,
2009-07-01, 00:25:00,VALID,918.656,VALID,0,VALID,100,VALID,-0.0679233,VALID,20.1648,VALID,75,VALID,0,
2009-07-01, 00:26:00,VALID,918.635,VALID,0,VALID,100,VALID,0,VALID,20.1546,VALID,88,VALID,0,
2009-07-01, 00:27:00,VALID,918.633,VALID,0,VALID,100,VALID,-0.0339617,VALID,20.1873,VALID,93,VALID,0,
2009-07-01, 00:28:00,VALID,918.602,VALID,0,VALID,100,VALID,0,VALID,20.2003,VALID,100,VALID,0,
2009-07-01, 00:29:00,VALID,918.581,VALID,0,VALID,100,VALID,-0.0509425,VALID,20.1938,VALID,103,VALID,0,
2009-07-01, 00:30:00,VALID,918.561,VALID,0,VALID,100,VALID,-0.0339617,VALID,20.1549,VALID,112,VALID,0,
2009-07-01, 00:31:00,VALID,918.54,VALID,0,VALID,100,VALID,0,VALID,20.1092,VALID,114,VALID,0,
2009-07-01, 00:32:00,VALID,918.516,VALID,0,VALID,100,VALID,0,VALID,20.0994,VALID,116,VALID,0,
2009-07-01, 00:33:00,VALID,918.478,VALID,0,VALID,100,VALID,0,VALID,20.0824,VALID,113,VALID,0,
2009-07-01, 00:34:00,VALID,918.461,VALID,0,VALID,100,VALID,-0.0169808,VALID,20.0794,VALID,108,VALID,0,
2009-07-01, 00:35:00,VALID,918.437,VALID,0,VALID,100,VALID,-0.0169808,VALID,20.0705,VALID,100,VALID,0,
2009-07-01, 00:36:00,VALID,918.412,VALID,0,VALID,100,VALID,-0.0509425,VALID,20.0505,VALID,100,VALID,0,
2009-07-01, 00:37:00,VALID,918.418,VALID,0,VALID,100,VALID,-0.0509425,VALID,20.0602,VALID,107,VALID,0,
2009-07-01, 00:38:00,VALID,918.402,VALID,0,VALID,100,VALID,-0.0509425,VALID,20.0473,VALID,111,VALID,0,
2009-07-01, 00:39:00,VALID,918.385,VALID,0,VALID,100,VALID,-0.0339617,VALID,20.028,VALID,116,VALID,0,
2009-07-01, 00:40:00,VALID,918.365,VALID,0,VALID,100,VALID,-0.0169808,VALID,20.0213,VALID,130,VALID,0,
2009-07-01, 00:41:00,VALID,918.343,VALID,0,VALID,100,VALID,-0.0679233,VALID,20.0318,VALID,130,VALID,0,
2009-07-01, 00:42:00,VALID,918.323,VALID,0,VALID,100,VALID,-0.0169808,VALID,20.0173,VALID,136,VALID,0,
2009-07-01, 00:43:00,VALID,918.305,VALID,0,VALID,100,VALID,-0.0169808,VALID,20.044,VALID,138,VALID,0,
2009-07-01, 00:44:00,VALID,918.285,VALID,0,VALID,100,VALID,-0.0169808,VALID,20.0081,VALID,138,VALID,0,
2009-07-01, 00:45:00,VALID,918.292,VALID,0,VALID,100,VALID,-0.0169808,VALID,20.0051,VALID,144,VALID,0,
2009-07-01, 00:46:00,VALID,918.276,VALID,0,VALID,100,VALID,0,VALID,19.9848,VALID,146,VALID,0,
2009-07-01, 00:47:00,VALID,918.251,VALID,0,VALID,100,VALID,0,VALID,19.9856,VALID,142,VALID,0,
2009-07-01, 00:48:00,VALID,918.236,VALID,0,VALID,100,VALID,0,VALID,19.9589,VALID,142,VALID,0,
2009-07-01, 00:49:00,VALID,918.22,VALID,0,VALID,100,VALID,-0.0679233,VALID,19.9367,VALID,149,VALID,0,
2009-07-01, 00:50:00,VALID,918.187,VALID,0,VALID,100,VALID,0,VALID,19.9202,VALID,157,VALID,0,
2009-07-01, 00:51:00,VALID,918.176,VALID,0,VALID,100,VALID,-0.0169808,VALID,19.9302,VALID,157,VALID,0,
2009-07-01, 00:52:00,VALID,918.149,VALID,0,VALID,100,VALID,-0.0679233,VALID,19.9399,VALID,157,VALID,0,
2009-07-01, 00:53:00,VALID,918.147,VALID,0,VALID,100,VALID,-0.0169808,VALID,19.9397,VALID,157,VALID,0,
2009-07-01, 00:54:00,VALID,918.128,VALID,0,VALID,100,VALID,0,VALID,19.9726,VALID,157,VALID,0,
2009-07-01, 00:55:00,VALID,918.114,VALID,0,VALID,100,VALID,-0.0339617,VALID,19.9918,VALID,149,VALID,0,
2009-07-01, 00:56:00,VALID,918.108,VALID,0,VALID,100,VALID,-0.0339617,VALID,19.9888,VALID,147,VALID,0,
2009-07-01, 00:57:00,VALID,918.089,VALID,0,VALID,100,VALID,-0.0169808,VALID,20.0021,VALID,147,VALID,0,
2009-07-01, 00:58:00,VALID,918.065,VALID,0,VALID,100,VALID,-0.0339617,VALID,20.0056,VALID,147,VALID,0,
2009-07-01, 00:59:00,VALID,918.056,VALID,0,VALID,100,VALID,-0.0169808,VALID,20.018,VALID,147,VALID,0,
2009-07-01, 01:00:00,VALID,918.057,VALID,0,VALID,100,VALID,0,VALID,20.0178,VALID,147,VALID,0,
2009-07-01, 01:01:00,VALID,918.044,VALID,0,VALID,100,VALID,-0.0169808,VALID,20.0405,VALID,154,VALID,0,
2009-07-01, 01:02:00,VALID,918.031,VALID,0,VALID,100,VALID,-0.0509425,VALID,20.0435,VALID,158,VALID,0,
2009-07-01, 01:03:00,VALID,918.031,VALID,0,VALID,100,VALID,-0.0169808,VALID,20.0567,VALID,160,VALID,0,
2009-07-01, 01:04:00,VALID,918.023,VALID,0,VALID,100,VALID,-0.0339617,VALID,20.0537,VALID,160,VALID,0,
2009-07-01, 01:05:00,VALID,918.04,VALID,0,VALID,100,VALID,-0.0169808,VALID,20.034,VALID,164,VALID,0,
2009-07-01, 01:06:00,VALID,918.035,VALID,0,VALID,100,VALID,0,VALID,20.0338,VALID,162,VALID,0,
2009-07-01, 01:07:00,VALID,918.024,VALID,0,VALID,100,VALID,-0.0169808,VALID,20.0408,VALID,155,VALID,0.0836806,
2009-07-01, 01:08:00,VALID,918.018,VALID,0,VALID,100,VALID,0,VALID,20.0173,VALID,154,VALID,0.0078125,
2009-07-01, 01:09:00,VALID,918.006,VALID,0,VALID,100,VALID,-0.0339617,VALID,20.0283,VALID,152,VALID,0.00104167,
2009-07-01, 01:10:00,VALID,918.007,VALID,0,VALID,100,VALID,-0.0169808,VALID,20.0178,VALID,179,VALID,0,
2009-07-01, 01:11:00,VALID,918.023,VALID,0,VALID,100,VALID,0,VALID,20.0108,VALID,175,VALID,0,
2009-07-01, 01:12:00,VALID,918.04,VALID,0,VALID,100,VALID,0,VALID,20.0537,VALID,137,VALID,0,
2009-07-01, 01:13:00,VALID,918.045,VALID,0,VALID,100,VALID,-0.0509425,VALID,20.0438,VALID,132,VALID,0,
2009-07-01, 01:14:00,VALID,918.067,VALID,0,VALID,100,VALID,0,VALID,20.041,VALID,130,VALID,0,
2009-07-01, 01:15:00,VALID,918.08,VALID,0,VALID,100,VALID,-0.0339617,VALID,20.0148,VALID,128,VALID,0,
2009-07-01, 01:16:00,VALID,918.077,VALID,0,VALID,100,VALID,0,VALID,20.0046,VALID,130,VALID,0,
2009-07-01, 01:17:00,VALID,918.081,VALID,0,VALID,100,VALID,-0.0509425,VALID,19.9853,VALID,128,VALID,0.108758,
2009-07-01, 01:18:00,VALID,918.052,VALID,0,VALID,100,VALID,-0.0169808,VALID,19.9821,VALID,128,VALID,0.00114329,
2009-07-01, 01:19:00,VALID,918.029,VALID,0,VALID,100,VALID,0,VALID,19.9891,VALID,143,VALID,0,
2009-07-01, 01:20:00,VALID,917.999,VALID,0,VALID,100,VALID,-0.0339617,VALID,19.9888,VALID,133,VALID,0.00101902,
2009-07-01, 01:21:00,VALID,917.978,VALID,0,VALID,100,VALID,0,VALID,19.9921,VALID,139,VALID,0.0636719,
2009-07-01, 01:22:00,VALID,917.952,VALID,0,VALID,100,VALID,-0.0339617,VALID,20.0018,VALID,146,VALID,0,
2009-07-01, 01:23:00,VALID,917.948,VALID,0,VALID,100,VALID,-0.0509425,VALID,19.9983,VALID,132,VALID,0.0406651,
2009-07-01, 01:24:00,VALID,917.933,VALID,0,VALID,100,VALID,-0.0509425,VALID,20.0051,VALID,127,VALID,0.00109012,
2009-07-01, 01:25:00,VALID,917.926,VALID,0,VALID,100,VALID,0,VALID,19.9946,VALID,143,VALID,0.0078125,
2009-07-01, 01:26:00,VALID,917.92,VALID,0,VALID,100,VALID,-0.0679233,VALID,20.0215,VALID,154,VALID,0,
2009-07-01, 01:27:00,VALID,917.896,VALID,0,VALID,100,VALID,-0.0169808,VALID,20.0148,VALID,137,VALID,0,
2009-07-01, 01:28:00,VALID,917.901,VALID,0,VALID,100,VALID,-0.0169808,VALID,20.0145,VALID,132,VALID,0,
2009-07-01, 01:29:00,VALID,917.884,VALID,0,VALID,100,VALID,-0.0169808,VALID,20.0273,VALID,119,VALID,0,
2009-07-01, 01:30:00,VALID,917.876,VALID,0,VALID,100,VALID,0,VALID,20.0208,VALID,135,VALID,0,
2009-07-01, 01:31:00,VALID,917.857,VALID,0,VALID,100,VALID,-0.0169808,VALID,20.0313,VALID,126,VALID,0,
2009-07-01, 01:32:00,VALID,917.851,VALID,0,VALID,100,VALID,-0.0679233,VALID,20.0215,VALID,122,VALID,0,
2009-07-01, 01:33:00,VALID,917.845,VALID,0,VALID,100,VALID,-0.0509425,VALID,20.041,VALID,129,VALID,0.238554,
2009-07-01, 01:34:00,VALID,917.832,VALID,0,VALID,100,VALID,-0.0339617,VALID,20.0343,VALID,122,VALID,0.0510538,
2009-07-01, 01:35:00,VALID,917.837,VALID,0,VALID,100,VALID,0,VALID,20.0343,VALID,127,VALID,0.0212573,
2009-07-01, 01:36:00,VALID,917.82,VALID,0,VALID,100,VALID,-0.0169808,VALID,20.0567,VALID,140,VALID,0,
2009-07-01, 01:37:00,VALID,917.806,VALID,0,VALID,100,VALID,-0.0339617,VALID,20.0862,VALID,125,VALID,0.169513,
2009-07-01, 01:38:00,VALID,917.801,VALID,0,VALID,100,VALID,-0.0339617,VALID,20.0994,VALID,114,VALID,0.00279018,
2009-07-01, 01:39:00,VALID,917.782,VALID,0,VALID,100,VALID,-0.0679233,VALID,20.0605,VALID,102,VALID,0,
2009-07-01, 01:40:00,VALID,917.767,VALID,0,VALID,100,VALID,0,VALID,20.0537,VALID,121,VALID,0.0226753,
2009-07-01, 01:41:00,VALID,917.754,VALID,0,VALID,100,VALID,-0.0169808,VALID,20.0338,VALID,137,VALID,0.142773,
2009-07-01, 01:42:00,VALID,917.721,VALID,0,VALID,100,VALID,-0.0169808,VALID,20.0375,VALID,142,VALID,0.0137195,
2009-07-01, 01:43:00,VALID,917.714,VALID,0,VALID,100,VALID,-0.0339617,VALID,20.0248,VALID,161,VALID,0.00223214,
2009-07-01, 01:44:00,VALID,917.697,VALID,0,VALID,100,VALID,-0.0169808,VALID,20.0378,VALID,153,VALID,0,
2009-07-01, 01:45:00,VALID,917.689,VALID,0,VALID,100,VALID,-0.0169808,VALID,20.018,VALID,156,VALID,0,
2009-07-01, 01:46:00,VALID,917.665,VALID,0,VALID,100,VALID,0,VALID,20.0248,VALID,145,VALID,0,
2009-07-01, 01:47:00,VALID,917.666,VALID,0,VALID,100,VALID,-0.0509425,VALID,20.0313,VALID,133,VALID,0,
2009-07-01, 01:48:00,VALID,917.653,VALID,0,VALID,100,VALID,-0.0169808,VALID,20.0343,VALID,124,VALID,0,
2009-07-01, 01:49:00,VALID,917.648,VALID,0,VALID,100,VALID,-0.0339617,VALID,20.0143,VALID,117,VALID,0,
2009-07-01, 01:50:00,VALID,917.643,VALID,0,VALID,100,VALID,-0.0169808,VALID,19.9948,VALID,116,VALID,0,
2009-07-01, 01:51:00,VALID,917.64,VALID,0,VALID,100,VALID,-0.0169808,VALID,19.9826,VALID,116,VALID,0,
2009-07-01, 01:52:00,VALID,917.64,VALID,0,VALID,100,VALID,-0.0169808,VALID,19.9789,VALID,116,VALID,0,
2009-07-01, 01:53:00,VALID,917.64,VALID,0,VALID,100,VALID,-0.0169808,VALID,19.9858,VALID,116,VALID,0,
2009-07-01, 01:54:00,VALID,917.638,VALID,0,VALID,100,VALID,-0.0169808,VALID,19.9918,VALID,116,VALID,0,
2009-07-01, 01:55:00,VALID,917.629,VALID,0,VALID,100,VALID,0,VALID,19.9953,VALID,116,VALID,0,
2009-07-01, 01:56:00,VALID,917.615,VALID,0,VALID,100,VALID,-0.0169808,VALID,19.9234,VALID,116,VALID,0,
2009-07-01, 01:57:00,VALID,917.614,VALID,0,VALID,100,VALID,-0.0169808,VALID,19.7966,VALID,116,VALID,0,
2009-07-01, 01:58:00,VALID,917.575,VALID,0,VALID,100,VALID,0,VALID,19.719,VALID,116,VALID,0,
2009-07-01, 01:59:00,VALID,917.567,VALID,0,VALID,100,VALID,0,VALID,19.6509,VALID,116,VALID,0,
2009-07-01, 02:00:00,VALID,917.549,VALID,0,VALID,100,VALID,0.0169808,VALID,19.5793,VALID,113,VALID,0,
2009-07-01, 02:01:00,VALID,917.514,VALID,0,VALID,100,VALID,0.0339617,VALID,19.5501,VALID,113,VALID,0,
2009-07-01, 02:02:00,VALID,917.497,VALID,0,VALID,100,VALID,0,VALID,19.5403,VALID,112,VALID,0,
2009-07-01, 02:03:00,VALID,917.48,VALID,0,VALID,100,VALID,-0.0169808,VALID,19.557,VALID,94,VALID,0,
2009-07-01, 02:04:00,VALID,917.463,VALID,0,VALID,100,VALID,-0.0169808,VALID,19.5665,VALID,29,VALID,0,
2009-07-01, 02:05:00,VALID,917.467,VALID,0,VALID,100,VALID,0,VALID,19.5633,VALID,29,VALID,0,
2009-07-01, 02:06:00,VALID,917.456,VALID,0,VALID,100,VALID,0,VALID,19.5403,VALID,29,VALID,0,
2009-07-01, 02:07:00,VALID,917.448,VALID,0,VALID,100,VALID,0.0169808,VALID,19.5081,VALID,29,VALID,0,
2009-07-01, 02:08:00,VALID,917.466,VALID,0,VALID,100,VALID,-0.0169808,VALID,19.5306,VALID,29,VALID,0,
2009-07-01, 02:09:00,VALID,917.443,VALID,0,VALID,100,VALID,-0.0169808,VALID,19.602,VALID,29,VALID,0,
2009-07-01, 02:10:00,VALID,917.433,VALID,0,VALID,100,VALID,0,VALID,19.6476,VALID,29,VALID,0,
2009-07-01, 02:11:00,VALID,917.428,VALID,0,VALID,100,VALID,-0.0169808,VALID,19.6549,VALID,29,VALID,0,
2009-07-01, 02:12:00,VALID,917.417,VALID,0,VALID,100,VALID,-0.0169808,VALID,19.6377,VALID,29,VALID,0,
2009-07-01, 02:13:00,VALID,917.415,VALID,0,VALID,100,VALID,0.0169808,VALID,19.599,VALID,60,VALID,0,
2009-07-01, 02:14:00,VALID,917.405,VALID,0,VALID,100,VALID,0,VALID,19.5635,VALID,115,VALID,0,
2009-07-01, 02:15:00,VALID,917.394,VALID,0,VALID,100,VALID,-0.0169808,VALID,19.5695,VALID,129,VALID,0,
2009-07-01, 02:16:00,VALID,917.384,VALID,0,VALID,100,VALID,0,VALID,19.599,VALID,151,VALID,0,
2009-07-01, 02:17:00,VALID,917.381,VALID,0,VALID,100,VALID,-0.0169808,VALID,19.573,VALID,133,VALID,0,
2009-07-01, 02:18:00,VALID,917.367,VALID,0,VALID,100,VALID,-0.0169808,VALID,19.5273,VALID,154,VALID,0,
2009-07-01, 02:19:00,VALID,917.369,VALID,0,VALID,100,VALID,-0.0169808,VALID,19.57,VALID,169,VALID,0,
2009-07-01, 02:20:00,VALID,917.358,VALID,0,VALID,100,VALID,0,VALID,19.5798,VALID,169,VALID,0,
2009-07-01, 02:21:00,VALID,917.38,VALID,0,VALID,100,VALID,-0.0339617,VALID,19.5406,VALID,169,VALID,0,
2009-07-01, 02:22:00,VALID,917.386,VALID,0,VALID,100,VALID,0.0169808,VALID,19.5341,VALID,169,VALID,0,
2009-07-01, 02:23:00,VALID,917.382,VALID,0,VALID,100,VALID,-0.0339617,VALID,19.5438,VALID,169,VALID,0,
2009-07-01, 02:24:00,VALID,917.356,VALID,0,VALID,100,VALID,0,VALID,19.5698,VALID,169,VALID,0,
2009-07-01, 02:25:00,VALID,917.348,VALID,0,VALID,100,VALID,-0.0169808,VALID,19.5373,VALID,168,VALID,0,
2009-07-01, 02:26:00,VALID,917.331,VALID,0,VALID,100,VALID,0,VALID,19.5276,VALID,151,VALID,0,
2009-07-01, 02:27:00,VALID,917.324,VALID,0,VALID,100,VALID,-0.0509425,VALID,19.5807,VALID,140,VALID,0,
2009-07-01, 02:28:00,VALID,917.31,VALID,0,VALID,100,VALID,-0.0849042,VALID,19.6127,VALID,140,VALID,0,
2009-07-01, 02:29:00,VALID,917.312,VALID,0,VALID,100,VALID,-0.0509425,VALID,19.6262,VALID,140,VALID,0,
2009-07-01, 02:30:00,VALID,917.316,VALID,0,VALID,100,VALID,-0.0509425,VALID,19.6224,VALID,140,VALID,0,
2009-07-01, 02:31:00,VALID,917.318,VALID,0,VALID,100,VALID,-0.0509425,VALID,19.6025,VALID,140,VALID,0,
2009-07-01, 02:32:00,VALID,917.325,VALID,0,VALID,100,VALID,-0.0849042,VALID,19.6065,VALID,140,VALID,0,
2009-07-01, 02:33:00,VALID,917.318,VALID,0,VALID,100,VALID,-0.0339617,VALID,19.6099,VALID,140,VALID,0,
2009-07-01, 02:34:00,VALID,917.312,VALID,0,VALID,100,VALID,-0.0339617,VALID,19.6152,VALID,140,VALID,0,
2009-07-01, 02:35:00,VALID,917.318,VALID,0,VALID,100,VALID,-0.0169808,VALID,19.6357,VALID,140,VALID,0,
2009-07-01, 02:36:00,VALID,917.317,VALID,0,VALID,100,VALID,-0.0339617,VALID,19.6254,VALID,140,VALID,0,
2009-07-01, 02:37:00,VALID,917.329,VALID,0,VALID,100,VALID,-0.0169808,VALID,19.6127,VALID,140,VALID,0,
2009-07-01, 02:38:00,VALID,917.323,VALID,0,VALID,100,VALID,-0.0509425,VALID,19.5997,VALID,141,VALID,0,
2009-07-01, 02:39:00,VALID,917.345,VALID,0,VALID,100,VALID,-0.0679233,VALID,19.6314,VALID,150,VALID,0,
2009-07-01, 02:40:00,VALID,917.359,VALID,0,VALID,100,VALID,-0.0509425,VALID,19.6579,VALID,153,VALID,0,
2009-07-01, 02:41:00,VALID,917.36,VALID,0,VALID,100,VALID,-0.0679233,VALID,19.6841,VALID,153,VALID,0,
2009-07-01, 02:42:00,VALID,917.372,VALID,0,VALID,100,VALID,-0.0679233,VALID,19.7038,VALID,145,VALID,0,
2009-07-01, 02:43:00,VALID,917.382,VALID,0,VALID,100,VALID,-0.0849042,VALID,19.6971,VALID,139,VALID,0,
2009-07-01, 02:44:00,VALID,917.406,VALID,0,VALID,100,VALID,-0.0509425,VALID,19.7035,VALID,140,VALID,0,
2009-07-01, 02:45:00,VALID,917.419,VALID,0,VALID,100,VALID,-0.0679233,VALID,19.6873,VALID,130,VALID,0,
2009-07-01, 02:46:00,VALID,917.434,VALID,0,VALID,100,VALID,-0.0679233,VALID,19.6614,VALID,134,VALID,0,
2009-07-01, 02:47:00,VALID,917.453,VALID,0,VALID,100,VALID,-0.0679233,VALID,19.6681,VALID,137,VALID,0,
2009-07-01, 02:48:00,VALID,917.464,VALID,0,VALID,100,VALID,-0.0169808,VALID,19.6836,VALID,133,VALID,0,
2009-07-01, 02:49:00,VALID,917.477,VALID,0,VALID,100,VALID,-0.0339617,VALID,19.6738,VALID,133,VALID,0,
2009-07-01, 02:50:00,VALID,917.496,VALID,0,VALID,100,VALID,-0.0509425,VALID,19.6873,VALID,134,VALID,0,
2009-07-01, 02:51:00,VALID,917.494,VALID,0,VALID,100,VALID,-0.101885,VALID,19.6973,VALID,134,VALID,0,
2009-07-01, 02:52:00,VALID,917.499,VALID,0,VALID,100,VALID,-0.0339617,VALID,19.7095,VALID,140,VALID,0,
2009-07-01, 02:53:00,VALID,917.5,VALID,0,VALID,100,VALID,-0.0509425,VALID,19.7258,VALID,142,VALID,0,
2009-07-01, 02:54:00,VALID,917.507,VALID,0,VALID,100,VALID,-0.0169808,VALID,19.7422,VALID,142,VALID,0,
2009-07-01, 02:55:00,VALID,917.512,VALID,0,VALID,100,VALID,-0.0339617,VALID,19.7617,VALID,142,VALID,0,
2009-07-01, 02:56:00,VALID,917.498,VALID,0,VALID,100,VALID,-0.0169808,VALID,19.7712,VALID,142,VALID,0,
2009-07-01, 02:57:00,VALID,917.488,VALID,0,VALID,100,VALID,-0.0509425,VALID,19.7852,VALID,142,VALID,0,
2009-07-01, 02:58:00,VALID,917.469,VALID,0,VALID,100,VALID,-0.0849042,VALID,19.7689,VALID,142,VALID,0,
2009-07-01, 02:59:00,VALID,917.446,VALID,0,VALID,100,VALID,-0.0849042,VALID,19.7625,VALID,142,VALID,0,
2009-07-01, 03:00:00,VALID,917.427,VALID,0,VALID,100,VALID,-0.101885,VALID,19.7587,VALID,142,VALID,0,
2009-07-01, 03:01:00,VALID,917.407,VALID,0,VALID,100,VALID,-0.101885,VALID,19.7887,VALID,142,VALID,0,
2009-07-01, 03:02:00,VALID,917.386,VALID,0,VALID,100,VALID,-0.101885,VALID,19.7946,VALID,142,VALID,0,
2009-07-01, 03:03:00,VALID,917.351,VALID,0,VALID,100,VALID,-0.101885,VALID,19.8111,VALID,131,VALID,0,
2009-07-01, 03:04:00,VALID,917.332,VALID,0,VALID,100,VALID,-0.0849042,VALID,19.8241,VALID,6,VALID,0,
2009-07-01, 03:05:00,VALID,917.334,VALID,0,VALID,100,VALID,-0.0679233,VALID,19.8303,VALID,6,VALID,0,
2009-07-01, 03:06:00,VALID,917.33,VALID,0,VALID,100,VALID,-0.101885,VALID,19.8303,VALID,6,VALID,0,
2009-07-01, 03:07:00,VALID,917.342,VALID,0,VALID,100,VALID,-0.0679233,VALID,19.8241,VALID,6,VALID,0,
2009-07-01, 03:08:00,VALID,917.344,VALID,0,VALID,100,VALID,-0.0679233,VALID,19.8171,VALID,6,VALID,0,
2009-07-01, 03:09:00,VALID,917.344,VALID,0,VALID,100,VALID,-0.0679233,VALID,19.8176,VALID,6,VALID,0,
2009-07-01, 03:10:00,VALID,917.334,VALID,0,VALID,100,VALID,-0.0679233,VALID,19.8206,VALID,6,VALID,0,
2009-07-01, 03:11:00,VALID,917.324,VALID,0,VALID,100,VALID,-0.0679233,VALID,19.8333,VALID,6,VALID,0,
2009-07-01, 03:12:00,VALID,917.34,VALID,0,VALID,100,VALID,-0.0509425,VALID,19.8366,VALID,6,VALID,0,
2009-07-01, 03:13:00,VALID,917.338,VALID,0,VALID,100,VALID,-0.0509425,VALID,19.8366,VALID,6,VALID,0,
2009-07-01, 03:14:00,VALID,917.33,VALID,0,VALID,100,VALID,-0.0679233,VALID,19.8273,VALID,6,VALID,0,
2009-07-01, 03:15:00,VALID,917.336,VALID,0,VALID,100,VALID,-0.0509425,VALID,19.8044,VALID,6,VALID,0,
2009-07-01, 03:16:00,VALID,917.334,VALID,0,VALID,100,VALID,-0.0509425,VALID,19.7917,VALID,6,VALID,0,
2009-07-01, 03:17:00,VALID,917.341,VALID,0,VALID,100,VALID,-0.0339617,VALID,19.8014,VALID,6,VALID,0,
2009-07-01, 03:18:00,VALID,917.346,VALID,0,VALID,100,VALID,-0.0849042,VALID,19.8079,VALID,12,VALID,0,
2009-07-01, 03:19:00,VALID,917.349,VALID,0,VALID,100,VALID,-0.0679233,VALID,19.7747,VALID,20,VALID,0,
2009-07-01, 03:20:00,VALID,917.353,VALID,0,VALID,100,VALID,-0.0849042,VALID,19.7754,VALID,26,VALID,0,
2009-07-01, 03:21:00,VALID,917.368,VALID,0,VALID,100,VALID,-0.101885,VALID,19.7625,VALID,22,VALID,0,
2009-07-01, 03:22:00,VALID,917.374,VALID,0,VALID,100,VALID,-0.101885,VALID,19.7425,VALID,27,VALID,0,
2009-07-01, 03:23:00,VALID,917.385,VALID,0,VALID,100,VALID,-0.0849042,VALID,19.7425,VALID,45,VALID,0,
2009-07-01, 03:24:00,VALID,917.416,VALID,0,VALID,100,VALID,-0.101885,VALID,19.759,VALID,46,VALID,0,
2009-07-01, 03:25:00,VALID,917.42,VALID,0,VALID,100,VALID,-0.0849042,VALID,19.7654,VALID,46,VALID,0,
2009-07-01, 03:26:00,VALID,917.443,VALID,0,VALID,100,VALID,-0.101885,VALID,19.7654,VALID,46,VALID,0,
2009-07-01, 03:27:00,VALID,917.456,VALID,0,VALID,100,VALID,-0.0339617,VALID,19.7787,VALID,46,VALID,0,
2009-07-01, 03:28:00,VALID,917.462,VALID,0,VALID,100,VALID,-0.0169808,VALID,19.7517,VALID,46,VALID,0,
2009-07-01, 03:29:00,VALID,917.483,VALID,0,VALID,100,VALID,0,VALID,19.758,VALID,46,VALID,0,
2009-07-01, 03:30:00,VALID,917.487,VALID,0,VALID,100,VALID,0,VALID,19.7615,VALID,53,VALID,0,
2009-07-01, 03:31:00,VALID,917.503,VALID,0,VALID,100,VALID,-0.0509425,VALID,19.7747,VALID,52,VALID,0,
2009-07-01, 03:32:00,VALID,917.509,VALID,0,VALID,100,VALID,-0.0169808,VALID,19.7842,VALID,54,VALID,0,
2009-07-01, 03:33:00,VALID,917.503,VALID,0,VALID,100,VALID,0,VALID,19.8031,VALID,54,VALID,0,
2009-07-01, 03:34:00,VALID,917.519,VALID,0,VALID,100,VALID,-0.0169808,VALID,19.8268,VALID,54,VALID,0,
2009-07-01, 03:35:00,VALID,917.508,VALID,0,VALID,100,VALID,-0.0169808,VALID,19.8169,VALID,51,VALID,0,
2009-07-01, 03:36:00,VALID,917.506,VALID,0,VALID,100,VALID,-0.0509425,VALID,19.7939,VALID,29,VALID,0,
2009-07-01, 03:37:00,VALID,917.507,VALID,0,VALID,100,VALID,-0.0849042,VALID,19.7749,VALID,27,VALID,0,
2009-07-01, 03:38:00,VALID,917.511,VALID,0,VALID,100,VALID,-0.0679233,VALID,19.7847,VALID,27,VALID,0,
2009-07-01, 03:39:00,VALID,917.515,VALID,0,VALID,100,VALID,0,VALID,19.7877,VALID,26,VALID,0,
2009-07-01, 03:40:00,VALID,917.502,VALID,0,VALID,100,VALID,-0.0169808,VALID,19.7847,VALID,26,VALID,0,
2009-07-01, 03:41:00,VALID,917.502,VALID,0,VALID,100,VALID,-0.0169808,VALID,19.7912,VALID,26,VALID,0,
2009-07-01, 03:42:00,VALID,917.509,VALID,0,VALID,100,VALID,-0.0339617,VALID,19.7879,VALID,26,VALID,0,
2009-07-01, 03:43:00,VALID,917.518,VALID,0,VALID,100,VALID,-0.0679233,VALID,19.7912,VALID,26,VALID,0,
2009-07-01, 03:44:00,VALID,917.526,VALID,0,VALID,100,VALID,-0.0509425,VALID,19.7914,VALID,26,VALID,0,
2009-07-01, 03:45:00,VALID,917.531,VALID,0,VALID,100,VALID,-0.101885,VALID,19.7782,VALID,26,VALID,0,
2009-07-01, 03:46:00,VALID,917.54,VALID,0,VALID,100,VALID,-0.0679233,VALID,19.7914,VALID,26,VALID,0,
2009-07-01, 03:47:00,VALID,917.558,VALID,0,VALID,100,VALID,-0.0169808,VALID,19.7782,VALID,26,VALID,0,
2009-07-01, 03:48:00,VALID,917.58,VALID,0,VALID,100,VALID,-0.0339617,VALID,19.746,VALID,26,VALID,0,
2009-07-01, 03:49:00,VALID,917.595,VALID,0,VALID,100,VALID,-0.0339617,VALID,19.7165,VALID,26,VALID,0,
2009-07-01, 03:50:00,VALID,917.621,VALID,0,VALID,100,VALID,-0.0169808,VALID,19.6801,VALID,26,VALID,0,
2009-07-01, 03:51:00,VALID,917.634,VALID,0,VALID,100,VALID,-0.0169808,VALID,19.6706,VALID,26,VALID,0,